^^
Your Local Weather - Clay, NY Station Historical Data
Daily Summary for May 15, 2017 Units:  English    Metric   Both
« Previous Day
Next Day »
Daily Weekly Monthly Yearly Custom
  High: Low: Average:
Temperature: 62.5 °F 47.6 °F 53.5 °F
Dew Point: 48.4 °F 40.9 °F 43.8 °F
Humidity: 88% 54% 71%
Wind Speed: 6.0mph 0.0mph 2.9mph
Wind Gust: 11.0mph - -
Wind- - NW
Pressure: 29.94 in 29.70 in -
Precipitation: 0.03 in    
Historical Graphs
 
 
Tabular Data for May 15, 2017
Time Temperature Dew Point Pressure Wind Wind Speed Wind Gust Humidity Rainfall Rate (Hourly) solar
00:05 49.4 °F 44.1 °F 29.70 in NW 1.0 mph 2.0 mph 82% 0.00 in 0 W/m2
00:12 49.6 °F 44.3 °F 29.70 in WNW 2.0 mph 2.0 mph 82% 0.00 in 0 W/m2
00:18 49.7 °F 44.4 °F 29.70 in WNW 1.0 mph 2.0 mph 82% 0.00 in 0 W/m2
00:23 49.8 °F 44.2 °F 29.70 in WNW 2.0 mph 2.0 mph 81% 0.00 in 0 W/m2
00:29 49.8 °F 44.5 °F 29.70 in WNW 2.0 mph 2.0 mph 82% 0.00 in 0 W/m2
00:35 49.8 °F 44.8 °F 29.70 in West 2.0 mph 3.0 mph 83% 0.00 in 0 W/m2
00:42 49.6 °F 45.0 °F 29.70 in NNW 2.0 mph 2.0 mph 84% 0.07 in 0 W/m2
00:48 49.3 °F 45.0 °F 29.70 in NNW 2.0 mph 2.0 mph 85% 0.06 in 0 W/m2
00:53 49.3 °F 45.3 °F 29.71 in NNE 2.0 mph 4.0 mph 86% 0.04 in 0 W/m2
00:59 49.3 °F 45.6 °F 29.71 in NNW 3.0 mph 4.0 mph 87% 0.00 in 0 W/m2
01:05 49.3 °F 45.6 °F 29.71 in WNW 3.0 mph 4.0 mph 87% 0.00 in 0 W/m2
01:12 49.3 °F 45.9 °F 29.71 in WNW 2.0 mph 2.0 mph 88% 0.00 in 0 W/m2
01:18 49.4 °F 46.0 °F 29.71 in NW 3.0 mph 6.0 mph 88% 0.00 in 0 W/m2
01:23 49.5 °F 46.1 °F 29.71 in NNW 4.0 mph 5.0 mph 88% 0.00 in 0 W/m2
01:29 49.5 °F 45.8 °F 29.71 in NW 4.0 mph 4.0 mph 87% 0.00 in 0 W/m2
01:35 49.6 °F 45.9 °F 29.71 in North 4.0 mph 8.0 mph 87% 0.00 in 0 W/m2
01:41 49.6 °F 45.6 °F 29.72 in WNW 5.0 mph 5.0 mph 86% 0.00 in 0 W/m2
01:48 49.6 °F 45.6 °F 29.72 in NW 5.0 mph 5.0 mph 86% 0.00 in 0 W/m2
01:53 49.6 °F 45.6 °F 29.72 in NW 5.0 mph 5.0 mph 86% 0.00 in 0 W/m2
01:59 49.5 °F 45.5 °F 29.72 in NNW 3.0 mph 3.0 mph 86% 0.00 in 0 W/m2
02:05 49.4 °F 45.4 °F 29.72 in NW 3.0 mph 4.0 mph 86% 0.00 in 0 W/m2
02:12 49.6 °F 45.3 °F 29.73 in NW 4.0 mph 11.0 mph 85% 0.00 in 0 W/m2
02:18 49.7 °F 45.1 °F 29.73 in NW 4.0 mph 11.0 mph 84% 0.00 in 0 W/m2
02:23 49.7 °F 45.1 °F 29.73 in NW 3.0 mph 4.0 mph 84% 0.00 in 0 W/m2
02:29 49.7 °F 44.7 °F 29.73 in WNW 4.0 mph 4.0 mph 83% 0.00 in 0 W/m2
02:31 49.7 °F 44.7 °F 29.73 in NNW 4.0 mph 4.0 mph 83% 0.00 in 0 W/m2
02:38 49.8 °F 44.5 °F 29.73 in North 5.0 mph 6.0 mph 82% 0.00 in 0 W/m2
02:43 49.8 °F 44.2 °F 29.73 in NNW 5.0 mph 5.0 mph 81% 0.00 in 0 W/m2
02:49 49.8 °F 44.2 °F 29.73 in NNW 4.0 mph 4.0 mph 81% 0.00 in 0 W/m2
02:55 49.7 °F 44.1 °F 29.73 in WNW 5.0 mph 8.0 mph 81% 0.00 in 0 W/m2
03:02 49.7 °F 43.5 °F 29.74 in NW 5.0 mph 5.0 mph 79% 0.00 in 0 W/m2
03:08 49.6 °F 43.4 °F 29.74 in WNW 4.0 mph 7.0 mph 79% 0.00 in 0 W/m2
03:13 49.6 °F 43.0 °F 29.74 in NW 5.0 mph 5.0 mph 78% 0.00 in 0 W/m2
03:19 49.5 °F 42.9 °F 29.74 in NNW 5.0 mph 5.0 mph 78% 0.00 in 0 W/m2
03:25 49.4 °F 42.8 °F 29.74 in SSW 4.0 mph 5.0 mph 78% 0.00 in 0 W/m2
03:31 49.4 °F 42.5 °F 29.74 in WNW 3.0 mph 5.0 mph 77% 0.00 in 0 W/m2
03:38 49.3 °F 42.4 °F 29.74 in WSW 4.0 mph 6.0 mph 77% 0.00 in 0 W/m2
03:43 49.2 °F 42.6 °F 29.75 in WNW 3.0 mph 4.0 mph 78% 0.00 in 0 W/m2
03:49 49.2 °F 42.3 °F 29.75 in NW 4.0 mph 4.0 mph 77% 0.00 in 0 W/m2
03:55 49.2 °F 42.3 °F 29.75 in NW 5.0 mph 5.0 mph 77% 0.00 in 0 W/m2
04:02 49.0 °F 42.1 °F 29.75 in NNW 4.0 mph 4.0 mph 77% 0.00 in 0 W/m2
04:08 49.0 °F 42.1 °F 29.75 in WNW 4.0 mph 9.0 mph 77% 0.00 in 0 W/m2
04:13 49.0 °F 42.1 °F 29.75 in NNW 4.0 mph 5.0 mph 77% 0.00 in 0 W/m2
04:19 48.9 °F 42.0 °F 29.76 in NW 3.0 mph 6.0 mph 77% 0.00 in 0 W/m2
04:25 48.8 °F 41.9 °F 29.76 in NW 3.0 mph 8.0 mph 77% 0.00 in 0 W/m2
04:32 48.7 °F 41.8 °F 29.76 in WNW 3.0 mph 6.0 mph 77% 0.00 in 0 W/m2
04:38 48.6 °F 41.7 °F 29.76 in NNW 4.0 mph 6.0 mph 77% 0.00 in 0 W/m2
04:43 48.5 °F 41.6 °F 29.76 in NW 4.0 mph 7.0 mph 77% 0.00 in 0 W/m2
04:49 48.4 °F 41.5 °F 29.76 in NW 3.0 mph 5.0 mph 77% 0.00 in 0 W/m2
04:55 48.3 °F 41.4 °F 29.77 in NW 4.0 mph 7.0 mph 77% 0.00 in 0 W/m2
05:02 48.3 °F 41.4 °F 29.77 in NW 4.0 mph 4.0 mph 77% 0.00 in 0 W/m2
05:08 48.2 °F 41.3 °F 29.77 in NNW 3.0 mph 8.0 mph 77% 0.00 in 0 W/m2
05:13 48.2 °F 41.3 °F 29.77 in NW 5.0 mph 6.0 mph 77% 0.00 in 0 W/m2
05:19 48.1 °F 41.2 °F 29.77 in NW 4.0 mph 4.0 mph 77% 0.00 in 0 W/m2
05:25 48.1 °F 41.2 °F 29.77 in NNW 4.0 mph 5.0 mph 77% 0.00 in 0 W/m2
05:32 48.0 °F 41.1 °F 29.77 in NNW 4.0 mph 5.0 mph 77% 0.00 in 0 W/m2
05:38 48.0 °F 41.1 °F 29.78 in NW 3.0 mph 5.0 mph 77% 0.00 in 0 W/m2
05:43 47.9 °F 41.0 °F 29.78 in NNW 3.0 mph 3.0 mph 77% 0.00 in 0 W/m2
05:49 47.8 °F 41.3 °F 29.78 in NW 4.0 mph 4.0 mph 78% 0.00 in 0 W/m2
05:55 47.8 °F 40.9 °F 29.79 in NW 4.0 mph 7.0 mph 77% 0.00 in 0 W/m2
06:02 47.8 °F 40.9 °F 29.79 in WSW 4.0 mph 5.0 mph 77% 0.00 in 0 W/m2
06:08 47.8 °F 41.3 °F 29.79 in NNW 4.0 mph 7.0 mph 78% 0.00 in 0 W/m2
06:13 47.8 °F 41.3 °F 29.79 in NW 4.0 mph 4.0 mph 78% 0.00 in 5 W/m2
06:19 47.7 °F 41.2 °F 29.79 in NNW 3.0 mph 4.0 mph 78% 0.00 in 7 W/m2
06:25 47.7 °F 41.2 °F 29.79 in NW 3.0 mph 6.0 mph 78% 0.00 in 7 W/m2
06:31 47.6 °F 41.1 °F 29.80 in NNW 3.0 mph 4.0 mph 78% 0.00 in 11 W/m2
06:38 47.7 °F 41.5 °F 29.80 in NW 2.0 mph 4.0 mph 79% 0.00 in 16 W/m2
06:43 47.6 °F 41.4 °F 29.80 in North 2.0 mph 4.0 mph 79% 0.00 in 16 W/m2
06:49 47.6 °F 41.4 °F 29.80 in NNW 4.0 mph 7.0 mph 79% 0.00 in 23 W/m2
06:55 47.7 °F 41.5 °F 29.80 in NNW 3.0 mph 7.0 mph 79% 0.00 in 25 W/m2
07:02 47.7 °F 41.5 °F 29.80 in NW 3.0 mph 3.0 mph 79% 0.00 in 37 W/m2
07:08 47.8 °F 41.6 °F 29.80 in North 2.0 mph 5.0 mph 79% 0.00 in 39 W/m2
07:13 47.8 °F 41.6 °F 29.80 in NW 3.0 mph 4.0 mph 79% 0.00 in 47 W/m2
07:19 47.8 °F 41.6 °F 29.80 in WNW 3.0 mph 4.0 mph 79% 0.00 in 46 W/m2
07:25 47.8 °F 41.6 °F 29.81 in NW 3.0 mph 5.0 mph 79% 0.00 in 42 W/m2
07:31 47.9 °F 41.7 °F 29.81 in NNW 2.0 mph 3.0 mph 79% 0.00 in 42 W/m2
07:38 47.9 °F 41.7 °F 29.81 in NW 2.0 mph 3.0 mph 79% 0.00 in 51 W/m2
07:43 47.9 °F 41.7 °F 29.82 in NNW 3.0 mph 3.0 mph 79% 0.00 in 62 W/m2
07:49 47.9 °F 41.7 °F 29.82 in NW 2.0 mph 2.0 mph 79% 0.00 in 95 W/m2
07:55 48.1 °F 42.2 °F 29.82 in WNW 2.0 mph 3.0 mph 80% 0.00 in 98 W/m2
08:02 48.3 °F 42.1 °F 29.82 in North 2.0 mph 6.0 mph 79% 0.00 in 86 W/m2
08:08 48.3 °F 42.1 °F 29.82 in NW 3.0 mph 6.0 mph 79% 0.00 in 88 W/m2
08:13 48.4 °F 42.2 °F 29.82 in NW 2.0 mph 5.0 mph 79% 0.00 in 84 W/m2
08:19 48.3 °F 41.8 °F 29.83 in NW 3.0 mph 3.0 mph 78% 0.00 in 123 W/m2
08:25 48.4 °F 41.5 °F 29.83 in NW 3.0 mph 4.0 mph 77% 0.00 in 100 W/m2
08:32 48.3 °F 41.4 °F 29.83 in NW 4.0 mph 5.0 mph 77% 0.00 in 123 W/m2
08:38 48.4 °F 41.5 °F 29.83 in NW 4.0 mph 5.0 mph 77% 0.00 in 114 W/m2
08:43 48.5 °F 42.0 °F 29.83 in NNW 3.0 mph 4.0 mph 78% 0.00 in 135 W/m2
08:49 48.6 °F 41.7 °F 29.83 in NW 3.0 mph 3.0 mph 77% 0.00 in 142 W/m2
08:55 48.7 °F 41.8 °F 29.84 in NNW 3.0 mph 4.0 mph 77% 0.00 in 130 W/m2
09:02 48.7 °F 41.8 °F 29.84 in NW 3.0 mph 6.0 mph 77% 0.00 in 139 W/m2
09:08 48.8 °F 42.2 °F 29.83 in NNW 3.0 mph 6.0 mph 78% 0.00 in 169 W/m2
09:13 48.8 °F 41.9 °F 29.84 in WNW 3.0 mph 6.0 mph 77% 0.00 in 178 W/m2
09:19 49.1 °F 42.2 °F 29.84 in NNW 4.0 mph 4.0 mph 77% 0.00 in 216 W/m2
09:25 49.2 °F 42.0 °F 29.84 in NW 3.0 mph 4.0 mph 76% 0.00 in 188 W/m2
09:31 49.2 °F 42.0 °F 29.84 in WNW 3.0 mph 3.0 mph 76% 0.00 in 144 W/m2
09:38 49.1 °F 41.9 °F 29.85 in NW 4.0 mph 8.0 mph 76% 0.00 in 158 W/m2
09:43 49.3 °F 42.1 °F 29.85 in NW 4.0 mph 5.0 mph 76% 0.00 in 213 W/m2
09:49 49.4 °F 42.1 °F 29.85 in NW 4.0 mph 4.0 mph 76% 0.00 in 243 W/m2
09:55 49.7 °F 42.4 °F 29.85 in NW 3.0 mph 7.0 mph 76% 0.00 in 209 W/m2
10:02 50.0 °F 42.7 °F 29.85 in NNW 3.0 mph 8.0 mph 76% 0.00 in 232 W/m2
10:08 49.9 °F 42.3 °F 29.85 in NW 3.0 mph 8.0 mph 75% 0.00 in 281 W/m2
10:13 50.1 °F 42.5 °F 29.85 in NW 3.0 mph 4.0 mph 75% 0.00 in 306 W/m2
10:19 50.4 °F 42.8 °F 29.85 in NNW 4.0 mph 5.0 mph 75% 0.00 in 278 W/m2
10:25 50.3 °F 42.7 °F 29.85 in WNW 5.0 mph 5.0 mph 75% 0.00 in 292 W/m2
10:32 50.5 °F 42.5 °F 29.85 in NW 4.0 mph 11.0 mph 74% 0.00 in 366 W/m2
10:38 50.8 °F 43.5 °F 29.85 in NW 4.0 mph 11.0 mph 76% 0.00 in 276 W/m2
10:43 51.0 °F 43.4 °F 29.85 in NW 4.0 mph 6.0 mph 75% 0.00 in 246 W/m2
10:49 50.5 °F 42.5 °F 29.85 in NNW 6.0 mph 6.0 mph 74% 0.00 in 239 W/m2
10:55 50.6 °F 42.6 °F 29.86 in NW 5.0 mph 8.0 mph 74% 0.00 in 218 W/m2
11:02 50.7 °F 42.7 °F 29.86 in NW 5.0 mph 5.0 mph 74% 0.00 in 216 W/m2
11:08 50.8 °F 43.2 °F 29.86 in NNW 5.0 mph 6.0 mph 75% 0.00 in 221 W/m2
11:13 51.0 °F 43.0 °F 29.86 in NW 4.0 mph 5.0 mph 74% 0.00 in 248 W/m2
11:19 51.2 °F 43.2 °F 29.86 in NW 3.0 mph 7.0 mph 74% 0.00 in 302 W/m2
11:25 51.4 °F 43.0 °F 29.86 in NNW 3.0 mph 7.0 mph 73% 0.00 in 251 W/m2
11:31 51.4 °F 43.7 °F 29.86 in WNW 4.0 mph 9.0 mph 75% 0.00 in 299 W/m2
11:38 51.6 °F 42.9 °F 29.86 in NW 4.0 mph 9.0 mph 72% 0.00 in 350 W/m2
11:43 52.4 °F 44.4 °F 29.86 in NNW 3.0 mph 6.0 mph 74% 0.00 in 418 W/m2
11:49 53.3 °F 44.1 °F 29.86 in WNW 3.0 mph 3.0 mph 71% 0.00 in 494 W/m2
11:55 53.3 °F 44.1 °F 29.86 in NNE 2.0 mph 4.0 mph 71% 0.00 in 376 W/m2
12:02 53.0 °F 43.5 °F 29.87 in NNW 2.0 mph 3.0 mph 70% 0.00 in 383 W/m2
12:08 53.3 °F 44.1 °F 29.87 in NNW 3.0 mph 7.0 mph 71% 0.00 in 429 W/m2
12:13 53.7 °F 44.1 °F 29.87 in NW 3.0 mph 3.0 mph 70% 0.00 in 359 W/m2
12:19 53.9 °F 44.7 °F 29.87 in NW 3.0 mph 3.0 mph 71% 0.00 in 374 W/m2
12:25 54.4 °F 45.2 °F 29.87 in NNW 4.0 mph 4.0 mph 71% 0.00 in 385 W/m2
12:31 54.8 °F 44.8 °F 29.87 in West 4.0 mph 7.0 mph 69% 0.00 in 466 W/m2
12:38 55.3 °F 45.7 °F 29.87 in NNW 4.0 mph 7.0 mph 70% 0.00 in 450 W/m2
12:43 55.2 °F 45.2 °F 29.87 in NNW 4.0 mph 5.0 mph 69% 0.00 in 373 W/m2
12:49 55.0 °F 45.0 °F 29.87 in WNW 3.0 mph 6.0 mph 69% 0.00 in 476 W/m2
12:55 54.6 °F 44.2 °F 29.86 in NW 3.0 mph 6.0 mph 68% 0.00 in 371 W/m2
13:02 55.4 °F 44.2 °F 29.87 in NW 3.0 mph 6.0 mph 66% 0.00 in 497 W/m2
13:08 56.0 °F 44.8 °F 29.87 in WNW 4.0 mph 6.0 mph 66% 0.00 in 432 W/m2
13:13 57.0 °F 46.9 °F 29.86 in WNW 5.0 mph 5.0 mph 69% 0.00 in 1172 W/m2
13:19 58.3 °F 47.8 °F 29.87 in NW 4.0 mph 4.0 mph 68% 0.00 in 1130 W/m2
13:25 57.4 °F 44.9 °F 29.86 in West 4.0 mph 4.0 mph 63% 0.00 in 1132 W/m2
13:32 57.0 °F 44.1 °F 29.86 in NW 4.0 mph 5.0 mph 62% 0.00 in 295 W/m2
13:38 57.4 °F 46.1 °F 29.86 in NNW 4.0 mph 10.0 mph 66% 0.00 in 1083 W/m2
13:45 58.1 °F 45.6 °F 29.86 in NW 4.0 mph 4.0 mph 63% 0.00 in 1104 W/m2
13:51 57.7 °F 44.8 °F 29.86 in North 4.0 mph 7.0 mph 62% 0.00 in 1183 W/m2
13:58 57.8 °F 46.1 °F 29.86 in West 5.0 mph 7.0 mph 65% 0.00 in 1004 W/m2
14:03 58.2 °F 46.5 °F 29.87 in WNW 4.0 mph 9.0 mph 65% 0.00 in 1058 W/m2
14:09 57.2 °F 45.5 °F 29.87 in WNW 5.0 mph 5.0 mph 65% 0.00 in 206 W/m2
14:15 59.0 °F 47.7 °F 29.87 in NNW 5.0 mph 8.0 mph 66% 0.00 in 244 W/m2
14:22 58.3 °F 46.2 °F 29.87 in North 5.0 mph 10.0 mph 64% 0.00 in 990 W/m2
14:28 58.2 °F 44.8 °F 29.87 in NW 5.0 mph 10.0 mph 61% 0.00 in 1041 W/m2
14:33 58.6 °F 46.5 °F 29.87 in WNW 4.0 mph 5.0 mph 64% 0.00 in 942 W/m2
14:39 58.8 °F 44.9 °F 29.87 in WNW 4.0 mph 4.0 mph 60% 0.00 in 937 W/m2
14:45 59.4 °F 46.4 °F 29.87 in NNW 4.0 mph 7.0 mph 62% 0.00 in 953 W/m2
14:51 60.2 °F 48.4 °F 29.87 in West 4.0 mph 6.0 mph 65% 0.00 in 935 W/m2
14:58 59.8 °F 47.6 °F 29.88 in NNW 4.0 mph 8.0 mph 64% 0.00 in 1030 W/m2
15:03 59.2 °F 46.6 °F 29.88 in NNW 5.0 mph 5.0 mph 63% 0.00 in 956 W/m2
15:09 60.0 °F 46.5 °F 29.88 in NNW 5.0 mph 5.0 mph 61% 0.00 in 882 W/m2
15:15 60.0 °F 46.1 °F 29.88 in WNW 4.0 mph 6.0 mph 60% 0.00 in 872 W/m2
15:21 59.4 °F 45.1 °F 29.87 in NNW 5.0 mph 7.0 mph 59% 0.00 in 849 W/m2
15:28 59.7 °F 44.9 °F 29.87 in WNW 5.0 mph 7.0 mph 58% 0.00 in 833 W/m2
15:33 60.2 °F 45.4 °F 29.87 in NW 4.0 mph 4.0 mph 58% 0.00 in 810 W/m2
15:39 61.3 °F 47.7 °F 29.87 in NW 3.0 mph 3.0 mph 61% 0.00 in 782 W/m2
15:45 60.9 °F 45.6 °F 29.87 in NW 3.0 mph 5.0 mph 57% 0.00 in 761 W/m2
15:51 60.6 °F 45.7 °F 29.87 in NW 3.0 mph 4.0 mph 58% 0.00 in 745 W/m2
15:58 60.4 °F 45.5 °F 29.87 in NW 4.0 mph 5.0 mph 58% 0.00 in 742 W/m2
16:03 60.6 °F 46.2 °F 29.87 in NW 5.0 mph 5.0 mph 59% 0.00 in 714 W/m2
16:09 60.9 °F 46.5 °F 29.87 in NW 4.0 mph 4.0 mph 59% 0.00 in 701 W/m2
16:15 61.4 °F 45.6 °F 29.87 in NNW 3.0 mph 8.0 mph 56% 0.00 in 687 W/m2
16:22 61.5 °F 46.1 °F 29.86 in NW 3.0 mph 8.0 mph 57% 0.00 in 668 W/m2
16:28 61.5 °F 44.7 °F 29.87 in WNW 4.0 mph 8.0 mph 54% 0.00 in 656 W/m2
16:33 61.9 °F 46.0 °F 29.86 in NW 3.0 mph 6.0 mph 56% 0.00 in 638 W/m2
16:39 62.5 °F 46.1 °F 29.86 in NW 3.0 mph 3.0 mph 55% 0.00 in 621 W/m2
16:48 62.5 °F 45.6 °F 29.86 in WNW 3.0 mph 6.0 mph 54% 0.00 in 599 W/m2
16:53 62.0 °F 46.1 °F 29.87 in NW 3.0 mph 4.0 mph 56% 0.00 in 529 W/m2
16:59 61.7 °F 44.9 °F 29.87 in NW 4.0 mph 4.0 mph 54% 0.00 in 424 W/m2
17:05 61.6 °F 45.3 °F 29.86 in NW 3.0 mph 4.0 mph 55% 0.00 in 118 W/m2
17:11 61.7 °F 44.9 °F 29.87 in West 3.0 mph 4.0 mph 54% 0.00 in 135 W/m2
17:18 61.7 °F 44.9 °F 29.87 in NNW 4.0 mph 4.0 mph 54% 0.00 in 42 W/m2
17:23 61.5 °F 45.2 °F 29.87 in West 4.0 mph 5.0 mph 55% 0.00 in 44 W/m2
17:29 61.6 °F 45.7 °F 29.87 in NW 3.0 mph 4.0 mph 56% 0.00 in 42 W/m2
17:35 61.7 °F 44.9 °F 29.87 in NW 3.0 mph 5.0 mph 54% 0.00 in 40 W/m2
17:41 61.5 °F 45.2 °F 29.88 in NW 4.0 mph 8.0 mph 55% 0.00 in 40 W/m2
17:48 61.1 °F 44.8 °F 29.88 in NW 5.0 mph 8.0 mph 55% 0.00 in 37 W/m2
17:53 61.1 °F 45.3 °F 29.88 in NW 5.0 mph 5.0 mph 56% 0.00 in 35 W/m2
17:59 61.3 °F 45.0 °F 29.88 in NW 4.0 mph 4.0 mph 55% 0.00 in 35 W/m2
18:05 61.4 °F 46.0 °F 29.88 in NNW 4.0 mph 4.0 mph 57% 0.00 in 35 W/m2
18:12 61.4 °F 45.6 °F 29.88 in NW 3.0 mph 4.0 mph 56% 0.00 in 35 W/m2
18:18 61.4 °F 45.1 °F 29.88 in NW 3.0 mph 4.0 mph 55% 0.00 in 33 W/m2
18:23 61.5 °F 45.2 °F 29.88 in NW 3.0 mph 8.0 mph 55% 0.00 in 33 W/m2
18:29 61.4 °F 45.1 °F 29.88 in NW 3.0 mph 7.0 mph 55% 0.00 in 32 W/m2
18:35 61.2 °F 44.9 °F 29.88 in NW 3.0 mph 7.0 mph 55% 0.00 in 33 W/m2
18:42 61.1 °F 45.3 °F 29.88 in NW 3.0 mph 4.0 mph 56% 0.00 in 30 W/m2
18:48 60.9 °F 45.1 °F 29.88 in NW 3.0 mph 4.0 mph 56% 0.00 in 33 W/m2
18:53 61.0 °F 44.7 °F 29.88 in WSW 3.0 mph 4.0 mph 55% 0.00 in 28 W/m2
18:59 61.1 °F 44.8 °F 29.88 in WNW 2.0 mph 2.0 mph 55% 0.00 in 26 W/m2
19:05 61.1 °F 44.8 °F 29.88 in NNW 2.0 mph 7.0 mph 55% 0.00 in 28 W/m2
19:12 60.9 °F 44.6 °F 29.88 in NW 2.0 mph 3.0 mph 55% 0.00 in 30 W/m2
19:18 60.7 °F 44.4 °F 29.89 in NW 3.0 mph 3.0 mph 55% 0.00 in 23 W/m2
19:23 60.5 °F 44.7 °F 29.89 in NW 3.0 mph 4.0 mph 56% 0.00 in 42 W/m2
19:29 60.3 °F 45.0 °F 29.90 in NW 2.0 mph 2.0 mph 57% 0.00 in 21 W/m2
19:35 60.0 °F 44.7 °F 29.90 in WNW 2.0 mph 2.0 mph 57% 0.00 in 19 W/m2
19:41 59.9 °F 44.6 °F 29.90 in NW 3.0 mph 3.0 mph 57% 0.00 in 19 W/m2
19:48 59.8 °F 44.1 °F 29.90 in NW 2.0 mph 3.0 mph 56% 0.00 in 16 W/m2
19:53 59.5 °F 44.2 °F 29.90 in NW 2.0 mph 3.0 mph 57% 0.00 in 12 W/m2
19:59 59.3 °F 44.1 °F 29.90 in NNW 2.0 mph 2.0 mph 57% 0.00 in 11 W/m2
20:05 59.1 °F 44.3 °F 29.90 in WNW 2.0 mph 2.0 mph 58% 0.00 in 9 W/m2
20:11 58.7 °F 44.8 °F 29.90 in WNW 1.0 mph 2.0 mph 60% 0.00 in 7 W/m2
20:18 58.4 °F 44.6 °F 29.90 in WNW 1.0 mph 2.0 mph 60% 0.00 in 5 W/m2
20:23 58.2 °F 44.4 °F 29.90 in WNW 1.0 mph 1.0 mph 60% 0.00 in 0 W/m2
20:29 57.7 °F 44.3 °F 29.90 in Calm     61% 0.00 in 0 W/m2
20:35 57.2 °F 44.3 °F 29.90 in Calm     62% 0.00 in 0 W/m2
20:42 56.7 °F 44.2 °F 29.90 in Calm   1.0 mph 63% 0.00 in 0 W/m2
20:48 56.4 °F 44.4 °F 29.90 in Calm   1.0 mph 64% 0.00 in 0 W/m2
20:53 56.3 °F 44.3 °F 29.90 in Calm   2.0 mph 64% 0.00 in 0 W/m2
20:59 56.1 °F 44.1 °F 29.90 in Calm   1.0 mph 64% 0.00 in 0 W/m2
21:05 55.8 °F 44.2 °F 29.90 in Calm   3.0 mph 65% 0.00 in 0 W/m2
21:12 55.7 °F 44.1 °F 29.90 in Calm   1.0 mph 65% 0.00 in 0 W/m2
21:18 55.5 °F 43.9 °F 29.91 in Calm   1.0 mph 65% 0.00 in 0 W/m2
21:23 55.3 °F 43.7 °F 29.91 in Calm     65% 0.00 in 0 W/m2
21:29 55.1 °F 43.9 °F 29.91 in Calm     66% 0.00 in 0 W/m2
21:35 54.9 °F 43.7 °F 29.91 in Calm     66% 0.00 in 0 W/m2
21:41 54.8 °F 44.0 °F 29.92 in Calm     67% 0.00 in 0 W/m2
21:48 54.7 °F 43.6 °F 29.93 in Calm   1.0 mph 66% 0.00 in 0 W/m2
21:53 54.5 °F 43.8 °F 29.93 in Calm     67% 0.00 in 0 W/m2
21:59 54.3 °F 43.6 °F 29.93 in Calm     67% 0.00 in 0 W/m2
22:05 54.3 °F 43.6 °F 29.93 in Calm   1.0 mph 67% 0.00 in 0 W/m2
22:12 54.1 °F 43.4 °F 29.93 in Calm     67% 0.00 in 0 W/m2
22:18 54.0 °F 43.7 °F 29.93 in Calm     68% 0.00 in 0 W/m2
22:23 53.8 °F 43.5 °F 29.93 in Calm     68% 0.00 in 0 W/m2
22:29 53.6 °F 43.3 °F 29.93 in Calm     68% 0.00 in 0 W/m2
22:35 53.5 °F 43.2 °F 29.93 in Calm     68% 0.00 in 0 W/m2
22:41 53.6 °F 43.7 °F 29.93 in Calm   1.0 mph 69% 0.00 in 0 W/m2
22:48 53.5 °F 43.2 °F 29.93 in Calm   1.0 mph 68% 0.00 in 0 W/m2
22:53 53.5 °F 43.6 °F 29.93 in Calm   2.0 mph 69% 0.00 in 0 W/m2
22:59 53.4 °F 43.5 °F 29.93 in WNW 1.0 mph 1.0 mph 69% 0.00 in 0 W/m2
23:05 53.3 °F 43.4 °F 29.93 in Calm   3.0 mph 69% 0.00 in 0 W/m2
23:11 53.2 °F 43.3 °F 29.94 in Calm     69% 0.00 in 0 W/m2
23:18 53.1 °F 43.2 °F 29.94 in Calm     69% 0.00 in 0 W/m2
23:23 53.2 °F 43.3 °F 29.94 in Calm   1.0 mph 69% 0.00 in 0 W/m2
23:29 53.0 °F 43.5 °F 29.94 in Calm     70% 0.00 in 0 W/m2
23:35 52.6 °F 43.1 °F 29.94 in Calm     70% 0.00 in 0 W/m2
23:42 52.3 °F 43.2 °F 29.94 in Calm     71% 0.00 in 0 W/m2
23:48 52.1 °F 43.0 °F 29.94 in Calm     71% 0.00 in 0 W/m2
23:53 51.9 °F 42.8 °F 29.94 in Calm     71% 0.00 in 0 W/m2
23:59 51.7 °F 42.6 °F 29.93 in Calm     71% 0.00 in 0 W/m2
Country Meadow, Clay, NY, USA
Compliments of Weather Underground - 2 mb